Location: Olda
(45.8833°N, 9.5500°E)
Time: 07:30:33
(UTC+00:00)

Lacrosse 4 Rocket - Pass Details

Date: 03 March 2021
Orbit: 537 x 620 km, 68.0° (Epoch: 11 April)

Event Time Altitude Azimuth Distance (km) Brightness Sun altitude
Rises 19:09:57 0° 197° (SSW) 2,814 5.0 -21.3°
Reaches altitude 10° 19:12:11 10° 193° (SSW) 1,930 4.1 -21.7°
Enters shadow 19:14:33 30° 179° (S) 1,077 2.6 -22.1°
